"Pseudo-MPEC" for C021KG2

Created 2019 Jan 13 12:18:13 UT using Find_Orb

Click here for an explanation of pseudo-MPECs

 
 Astrometry: 
     C021KG2  C2019 01 09.12149 05 18 50.14 +48 10 18.0    ~194I 18.3 GVNEOCPG96
     C021KG2  C2019 01 09.12687 05 19 00.50 +48 09 07.0    ~194I 18.4 GVNEOCPG96
     C021KG2  C2019 01 09.13224 05 19 10.27 +48 07 59.7    ~194I 18.6 GVNEOCPG96
     C021KG2  C2019 01 09.15385 05 19 50.19 +48 03 20.9    ~19DI 18.5 GVNEOCPI52
     C021KG2  C2019 01 09.15398 05 19 50.42 +48 03 19.2    ~19DI 18.5 GVNEOCPI52
     C021KG2  C2019 01 09.15411 05 19 50.67 +48 03 17.3    ~19DI 18.3 GVNEOCPI52
     C021KG2  C2019 01 09.15423 05 19 50.84 +48 03 15.3    ~19DI 17.8 GVNEOCPI52
     C021KG2  C2019 01 09.26014 05 23 00.87 +47 40 08.4    ~19DI 18.4 GVNEOCPI52
     C021KG2  C2019 01 09.26056 05 23 01.55 +47 40 03.1    ~19DI 18.3 GVNEOCPI52
     C021KG2  C2019 01 09.26097 05 23 02.32 +47 39 56.9    ~19DI 18.5 GVNEOCPI52
     C021KG2  C2019 01 09.26139 05 23 03.00 +47 39 52.2    ~19DI 18.2 GVNEOCPI52
     C021KG2  C2019 01 09.26417 05 23 07.86 +47 39 15.4    ~19DI 18.4 GVNEOCPI52
     C021KG2  C2019 01 09.26458 05 23 08.58 +47 39 09.8    ~19DI 18.4 GVNEOCPI52
     C021KG2  C2019 01 09.26500 05 23 09.31 +47 39 04.2    ~19DI 18.3 GVNEOCPI52
     C021KG2  C2019 01 09U8jAy1hCFG4^VO:aEqisAstrometryKFk]42'DsaH(8IS#kQ#8?aT05
     C021KG2  C2019 01 09y3REXiYDqWX%2qJ@NoqR.6mV*#@x*s1\iLQhw.,/h`B_db4Z3@h#T05
     C021KG2  C2019 01 09tkq1/;]:)ZIii7OeP:'tn8qn%JgeyX\0BQG\Z[_I$PyD'mKEg@^]T05
     C021KG2  C2019 01 095AwL+?#RU^g;alk`6rS;rt50W'(/QJ'Al$mQwJ^SbKHJq90af#8lT05
     C021KG2  C2019 01 09%:FsmxJq\WZa%*Ysn@_fwwYDy]q)pP)dP*7w\bor?OYyYlr'gWndJ04
     C021KG2  C2019 01 09jZdsx;W689Ra1K6EJI7BQ$SyC;L+6?lJ*@yw87kDSVpi!@mm=xqpJ04
     C021KG2  C2019 01 099?[cIU?RXnwVGTLj/G]d[N4XB[BCtbX7e3Wh?i\=y]KLMZM177FeJ04
     C021KG2 IC2019 01 09#il5Z1HkSg4i*4L/`Tj3e[$eF]D-=_7tN]/bI1TyhF]Lm7OEr-1rL01
     C021KG2 KC2019 01 097v._W294e[ZH^`og,*fX7Q*(-dEU5\RC\7!n*5YeI\#/Q$P8b=JyL01
     C021KG2 KC2019 01 09e.==+y.,Hlu[WDq5.#m^;UUeT$tj3GKxUhoaB#GjoC%'AQpOTchoL01
     C021KG2 KC2019 01 09=i0hg@Wredacted;7[Sn(w%EGSov-XdVvbEc.?Rbt8s1sLYIw[%vL01
     C021KG2 KC2019 01 10.04870405 44 05.99 +44 53 34.5    ~1A2I 18.7 GVNEOCPJ95
     C021KG2 KC2019 01 10.05106005 44 09.17 +44 53 05.7    ~1A2I 18.8 GVNEOCPJ95
     C021KG2 KC2019 01 10.05427905 44 13.48 +44 52 26.4    ~1A2I 18.6 GVNEOCPJ95
     C021KG2 KC2019 01 10CQy+vI*uU]);0nh\Nj_KeH.x9gr=1#pyrs]nO`+XUMCR!hlLnWN/H21
     C021KG2 KC2019 01 10!%^NyBBN\'`7w34*hvop-CM1qwp\L+A^=vfy#MjU:$_][5RQBuX^H21
     C021KG2 KC2019 01 10]IG]-dYt=7!-F;e_xFt*RdTAnCRWo6MhZ-bwxc^DXJ)1p#;sug'[H21
     C021KG2 KC2019 01 10j2;KsWHqta;R1x=[U38N.%/%:4N,b33,yNWM_ZDYA:f,l)AHYv%^H21
     C021KG2 KC2019 01 10jyLvxUTK:hJtc`o0CjX`J/?bI#;w5Tg4Z=f5K8P9J40KDSpWmt@fH21
     C021KG2 KC2019 01 10_-8@$%UPq+ig/F!sKy'uVtov;,?*]_cwlU=q4L!+2DLAj';p'Bk7H21
     C021KG2 KC2019 01 10p^m3[9hRd#%ebk0ifTp'$w#p5N1Wm2d=p1PRK?*ivcU^T?MAsxxuH21
     C021KG2 KC2019 01 10UE`s;q#GvB,frou1$:8yg6U?25APQTLaSf4I77p44T,LO=PCVOdlK63
     C021KG2 KC2019 01 10%Z5f3U6l8-Zc425=P?:`n%RS/e'4N,n=M\r'rd?YEyw322QRkJ.-K63
     C021KG2 KC2019 01 10HRjO%UI8TH5A4HLPTrRTBaV4P$click6%tT'MEW,TZDb\4)q60GjK38
     C021KG2 KC2019 01 10OE*e$%t,,s=lMwji3$L*:\,^d`75!+o**J/YDo?=21D/!gBZ9'NvK63
     C021KG2 KC2019 01 10N=EXHy\1XZwwlbuUcbQwXLRE98qhF4g%6f;!DB[usM]I\14xgl$?203
     C021KG2 KC2019 01 10WA6m-QH+M*G1=Jn=[(o#Nsvfj.QXb.5)x\j)*uW4!Xr(nj=P_t$3K63
     C021KG2 KC2019 01 10B^%%\aJeEEvZ!T4s6(c.X#(\jy'GYW]U;4QW^q#^m7_K2lSveS)!K38
     C021KG2 KC2019 01 10(JVD9-Vw$Y5Lpt(A-tN]u9jX:3:wW08_4H^MUn%4M::wiBPpFgk_203
     C021KG2 KC2019 01 10!(C;kSDGIht=\q`$i6u5#@N4D[XfZDcu`.N*/u-QI%4telcVAR3bK38
     C021KG2 KC2019 01 10(:Fki`qEcFRno1(iQO,ap^t2vrWNbKtS;5-fZJ3f?\x!OP26!Kd3203
     C021KG2 KC2019 01 101w=?8RLY2wlxp(vq.%uo#FZjiu*9Gs$D6C7hppGR=DOhS.j($G(8K51
     C021KG2 KC2019 01 10oiX_2oM\?'][ZTcC3K3oO[wAMH.I3B?VUXBJ,YDg%!q_:Lj'usr;K51
     C021KG2 KC2019 01 10f!D`%PsIr6)MaBlUI6\D/S=$Bl(5(!r)F2herebP,fBoP]kv8:2NK51
     C021KG2 KC2019 01 10H6mIN!o`=yl)VhR,KD(=^nlwiM-CQ/3EeQH9,qJpl-[`2`*n$BJt106
     C021KG2 KC2019 01 10=(VHPp/Gp3q@xwd8d3-Of'5=bsSj(0lX!YPhQl/)jim(TZx;0By5106
     C021KG2 KC2019 01 10UQ(0dXy;JbxnQFP+(jFBj6[bLM%jO4u1D`iCUm_T7Fv)wq)s;?T#106
     C021KG2 KC2019 01 101A;qd8'Xx[Ni[Ne;Wbfa6'D_rLAb\8sX-EByLTQ-(@BW`7h$O8+0204
     C021KG2 KC2019 01 10yX=W?brhTJO7DqH*c6-gfELP\q2E7VEIsVB6V:$ed./YJmB`/\V\204
     C021KG2 KC2019 01 10Gr7C.n]fYt[eT_XvEY`3v\o)%+'#f(u$K)LbJ_dD@ORYbO$A5^.1204
     C021KG2 KC2019 01 10#O1y-6\Yx,c+8l]qT2PO!4]fco4cX=A-NtodVN==mZH+L_W[L-dM204
     C021KG2 KC2019 01 10OC6Nq+m(Z0E'jGfp,w+X^p`ZrTsi6OrjM.?DnfL(PK/@LOjYMvk1204
     C021KG2 KC2019 01 10-PH%@ug9?5%F=UKOx0@W]pHHTnZmfgC4FcgW]#7)tFTUvRepcH@fW34
     C021KG2 KC2019 01 11+)es))]J:t'Q#xfor1WNBD[DdG:Fu3cE(k(1(R%ZWY6/EG]ci[D3W34
     C021KG2 KC2019 01 11a^2`fXBQ:NW=bhPxwuE4^ho]Un]7mX+.=rH]PDijra[B83?33-L!W34
     C021KG2 KC2019 01 11q$S%A%'YUKwV;XxSF=AYJm4VE*G!UZZa[6f7jcm+vk9BbZ!fM5F)W34
     C021KG2 KC2019 01 117egrbl9R/`7+QP'm0(Y7r%t-/YC:k[%2-_5oQN!;58@C(4S0GE\MW34
     C021KG2  C2019 01 11.22180 06 06 53.05 +41 20 09.1    ~1B6I 18.5 GVNEOCPI52
     C021KG2  C2019 01 11.22307 06 06 54.15 +41 19 56.6    ~1B6I 18.7 GVNEOCPI52
     C021KG2  C2019 01 11.22434 06 06 55.17 +41 19 45.9    ~1B6I       VNEOCPI52
     C021KG2  C2019 01 11.22562 06 06 56.29 +41 19 33.2    ~1B6I       VNEOCPI52
     C021KG2 KC2019 01 11DH0VUpk$!t%/q=):E=H/emll25(e3/$D@Y:1];+Xn4OxNNov]ZC)104
     C021KG2 KC2019 01 11v_@%3Z6KPvgbD!7B*elZ$,-4%pcTFHTAMBUm+nZm86^5@I'T-Xfn104
     C021KG2 KC2019 01 112.,:P;2CGZ#:LmSa3VBh\*Hx!mqeG\QUBE_]1(^k_SrS,3@bVby:104
     C021KG2 KC2019 01 11]pEhKAhdYSlqy+Jq80*Ys:urT8sG0B0m806=QX'd1M60Y`'qq2*DC77
     C021KG2 KC2019 01 11(Of8vXHfvTDWrV+.@IHit4t:ThOr1W!QpR0r,L==yMH-mfVoVP)*C77
     C021KG2 KC2019 01 11+2SUc'6I.Sg-inN0KC@U'JX%bnRrJ7^$FA(9E6F2w'UkUepx+%/^C77
     C021KG2 KC2019 01 11(([)_V1R!!RgxYCi4b:gn@FW$_)0PMg2/oHY4'-YfEIU-cvU)v3aB49
     C021KG2 KC2019 01 11xR;mUtN///ei)0l8q/4'l0nSldJexplanationW-cU9%InSwX,t'B49
     C021KG2  C2019 01 12.26588 06 21 15.13 +38 40 35.8    ~1C7I       VNEOCPI52
     C021KG2  C2019 01 12.26702 06 21 15.89 +38 40 27.1    ~1C7I 18.7 GVNEOCPI52
     C021KG2  C2019 01 12.26720 06 21 15.97 +38 40 24.9    ~1C7I       VNEOCPI52
     C021KG2  C2019 01 12.26738 06 21 16.17 +38 40 24.1    ~1C7I       VNEOCPI52

Station data:
(104) San Marcello Pistoiese  (N44.063037 E10.804200)  Italy. 0.40-m f/5
   reflector.
(106) Črni Vrh  (N45.945908 E14.071100)  Slovenia.  Observer J. Skvarč. 0.6-m
   f/3.3 Deltagraph + CCD.
(203) GiaGa Observatory  (N45.541408 E8.995500)  Italy. 0.13-m f/6.4
   refractor.
(204) Schiaparelli Observatory  (N45.867933 E8.770800)  Italy.  Observer L.
   Buzzi. 0.60-m f/4.64 Newtonian + CCD.
(B49) Paus Observatory, Sabadell  (N41.551135 E2.112690)  Spain.
(C77) Bernezzo Observatory  (N44.385250 E7.453500)  Italy.
(G96) Mt. Lemmon Survey  (N32.442754 W110.788720)  US/Arizona.  Observers B.
   M. Africano, E. J. Christensen, G. A. Farneth, D. C. Fuls, A. R. Gibbs, A.
   D. Grauer, H. Groeller, J. A. Johnson, R. A. Kowalski, S. M. Larson, G. J.
   Leonard, R. L. Seaman, F. C. Shelly. 1.5-m reflector + 10K CCD.
(H21) Astronomical Research Observatory, Westfield  (N39.483057 W87.968270)
   US/Illinois. 0.76-m f/3.0 astrograph + CCD.
(I52) Steward Observatory, Mt. Lemmon Station  (N32.442547 W110.788920)
   US/Arizona.  Observers B. M. Africano, E. J. Christensen, G. A. Farneth,
   D. C. Fuls, A. R. Gibbs, A. D. Grauer, H. Groeller, J. A. Johnson, R. A.
   Kowalski, S. M. Larson, G. J. Leonard, R. L. Seaman, F. C. Shelly. 1.0-m
   reflector + CCD.
(J04) ESA Optical Ground Station, Tenerife  (N28.300924 W16.511830)  Canary
   Islands (Spain).  Observer D. Abreu. Measurers M. Micheli, D. Koschny, E.
   Schwab, M. Busch, A. Knöfel. 1.0-m f/4.4 reflector + CCD.
(J95) Great Shefford  (N51.474969 W1.447003)  UK.  Observer P. Birtwhistle.
   0.40-m f/6.0 Schmidt-Cassegrain + CCD.
(K38) M57 Observatory, Saltrio  (N45.873785 E8.918240)  Italy.
(K51) Osservatorio del Celado, Castello Tesino  (N46.029412 E11.657900)
   Italy.
(K63) G. Pascoli Observatory, Castelvecchio Pascoli  (N44.082410 E10.462000)
   Italy.
(L01) Višnjan Observatory, Tičan  (N45.290900 E13.749300)  Croatia.
   Observers K. Korlević, E. Pettarin. Measurer E. Pettarin. 1.0-m f/2.9
   reflector + CCD.
(T05) ATLAS-HKO, Haleakala  (N20.707573 W156.257010)  US/Hawaii.  Observers
   L. Denneau, A. Heinze, H. Weiland, J. Tonry, H. Flewelling, A.
   Fitzsimmons, D. Young. Measurers L. Denneau, A. Heinze, J. Tonry. 0.5-m
   f/2.0 Schmidt + CCD.
(W34) Squirrel Valley Observatory, Columbus  (N35.225393 W82.154700)
   US/North Carolina.  Observer R. L. Flynn. 0.20-m f/10 Schmidt-Cassegrain +
   f/7.0 focal reducer.

Orbital elements:  C021KG2
   Perihelion 2018 Nov 22.188043 +/- 0.0122 TT =  4:30:46 (JD 2458444.688043)
Epoch 2019 Jan 12.0 TT = JDT 2458495.5   Earth MOID: 0.0196   Ma: 0.0218
M  23.78534470 +/- 0.038            (J2000 ecliptic)          AutoNEOCP
n   0.46810526 +/- 0.000643         Peri.   89.28894 +/- 0.0044
a   1.64275840 +/- 0.00151          Node   310.48110 +/- 0.0043
e   0.5069421 +/- 0.000524          Incl.    2.80381 +/- 0.0028
P   2.11/769.04d           H 23.9   G  0.15   U  7.8  
q 0.80997498 +/- 0.00012    Q 2.47554181 +/- 0.00313
From 77 observations 2019 Jan. 9-12; mean residual 0".49
Residuals in arcseconds: 
190109 G96  1.1-  .40+    190110 J95  .06+  .06+    190110 204  .25+  .31-    
190109 G96  2.1+  1.5-    190110 J95  .24-  .21+    190110 204  .20+  .24-    
190109 G96  .22-  .24+    190110 H21  .15+  .09-    190110 204  .39+  .26-    
190109 I52  .36-  .12+    190110 H21  .38+  .18+    190110 204  .15+  .17-    
190109 I52  .45-  .10+    190110 H21  .28+  .09-    190110 W34  .51+  .39-    
190109 I52  .34-  .12-    190110 H21  .26+  .12-    190111 W34  .15+  1.0+    
190109 I52  .85-  .57-    190110 H21  .12+  .23-    190111 W34  .40+  .70+    
